Regional Weather Roundup
Issued by NWS State College, PA

Home | Current Version | Previous Version | Graphics & Text | Print | Product List | Glossary Off
Versions: 1 2 3 4 5 6 7 8 9 10 11 12 13 14 15 16 17 18 19 20 21 22 23 24 25 26 27 28 29 30 31 32 33 34 35 36 37 38 39 40 41 42 43 44 45 46 47 48 49 50

000
ASUS41 KCTP 170910
RWRCTP

REGIONAL WEATHER ROUNDUP
NATIONAL WEATHER SERVICE STATE COLLEGE PA
400 AM EST TUE JAN 17 2017

Note: "fair" indicates few or no clouds below 12,000 feet with no
significant weather and/or obstructions to visibility.

* = STATION THAT DOES NOT REPORT PRECIPITATION /E.G. RAIN...SNOW...ETC/
    THUNDER OR FOG.

PAZ002>004-007>009-013>016-020>023-029>032-171000-
WESTERN PENNSYLVANIA

CITY           SKY/WX    TMP DP  RH WIND       PRES   REMARKS
ERIE           LGT RAIN  40  38  93 E3        30.05F FOG
MEADVILLE      CLOUDY    39  37  92 VRB3      30.04F FOG
FRANKLIN*        N/A     36  34  93 E7        30.08F
NEW CASTLE     LGT RAIN  38  37  97 CALM      30.06F FOG
BEAVER COUNTY  NOT AVBL
BUTLER*        CLOUDY    39  37  93 E7        30.09F
PITTSBURGH INT FOG       39  39 100 SE5       30.06F VSB 3/4
PITTSBURGH     FOG       40  37  89 SE6       30.07F VSB 1/2
INDIANA*       MOCLDY    41  39  93 E5        30.12F
LATROBE        LGT RAIN  37  37 100 CALM      30.10F
WASHINGTON CO* CLOUDY    39  39 100 SW3       30.08S
$$

PAZ004>006-010>012-017>019-024>028-033>037-041-042-045-046-049>053-171000-
CENTRAL PENNSYLVANIA

CITY           SKY/WX    TMP DP  RH WIND       PRES   REMARKS
BRADFORD       LGT RAIN  34  33  96 SE6       30.09F
DUBOIS         FOG       34  32  92 E8        30.09F VSB 1/4
CLEARFIELD     CLOUDY    34  31  88 NE6       30.14F
JOHNSTOWN      CLOUDY    44  44 100 SW3       30.10F FOG
ALTOONA        CLOUDY    34  32  92 CALM      30.16S FOG
STATE COLLEGE  CLOUDY    32  30  94 CALM      30.18S
WILLIAMSPORT   LGT RAIN  35  27  72 E3        30.21F
SELINSGROVE    CLOUDY    33  31  92 CALM      30.22F
FT INDIANTOWN  DRIZZLE   34  30  86 CALM      30.22F
CAPITAL CITY   CLOUDY    37  27  67 CALM      30.23F
HARRISBURG     CLOUDY    35  30  82 CALM      30.22F
YORK           CLOUDY    35  33  92 CALM      30.21F
$$

PAZ038>040-043-044-047-048-054-055-060>062-067>071-171000-
EASTERN PENNSYLVANIA

CITY           SKY/WX    TMP DP  RH WIND       PRES   REMARKS
SCRANTON       CLOUDY    34  29  82 CALM      30.19F
MOUNT POCONO   CLOUDY    32  27  81 W7        30.16F
ALLENTOWN      CLOUDY    37  26  64 CALM      30.23F
QUAKERTOWN*    CLOUDY    36  27  69 CALM      30.23F
READING        CLOUDY    36  27  69 CALM      30.22F
LANCASTER      CLOUDY    36  32  85 E5        30.22F
COATESVILLE    CLOUDY    36  27  69 CALM      30.23F
POTTSTOWN      CLOUDY    35  29  78 CALM      30.25F
BLUE BELL      CLOUDY    36  30  80 CALM      30.24F
DOYLESTOWN     CLOUDY    38  26  62 CALM      30.23F
WILLOW GROVE   NOT AVBL
NORTH PHILA    CLOUDY    40  28  62 CALM      30.27F
PHILADELPHIA   CLOUDY    39  30  70 CALM      30.26F
$$




USA.gov is the U.S. government's official web portal to all federal, state and local government web resources and services.